Weather History for Belmar-Farmingdale, NJ

Change the Weather History Date:

Saturday, August 3, 2013

  Actual Average Record
Temperature  
Mean Temperature 72 °F -  
Max Temperature 78 °F 79 °F 98 °F (2006)
Min Temperature 66 °F 64 °F 59 °F (1998)
Cooling Degree Days 7    
Growing Degree Days 22 (Base 50)    
Moisture  
Dew Point 65 °F    
Average Humidity 81    
Maximum Humidity 94    
Minimum Humidity 65    
Precipitation  
Precipitation 0.01 in - - ()
Sea Level Pressure  
Sea Level Pressure 29.92 in    
Wind  
Wind Speed 6 mph (WSW)    
Max Wind Speed 15 mph    
Max Gust Speed 18 mph    
Visibility 10 miles    
Events      
Averages and records for this station are not official NWS values.
T = Trace of Precipitation, MM = Missing Value Source: NWS Daily Summary

Daily Weather History Graph

Daily Weather History Graph

Search for Another Location

Airport:

Trip Planner

Search our weather history database for the weather conditions in past years. The results will help you decide how hot, cold, wet, or windy it might be!

Date:

Astronomy

Aug. 03, 2013 Rise Set
Actual Time 5:56 AM EDT 8:08 PM EDT
Civil Twilight 5:26 AM EDT 8:38 PM EDT
Nautical Twilight 4:49 AM EDT 9:15 PM EDT
Astronomical Twilight 4:08 AM EDT 9:55 PM EDT
Moon 3:03 AM EDT (8/3) 5:48 PM EDT (8/3)
Length of Visible Light 15h 11m
Length of Day
14h 11m
Waning Crescent, 9% of the Moon is Illuminated
Aug 3
Waning Crescent
Aug 6
New
Aug 14
First Quarter
Aug 20
Full
Aug 28
Last Quarter

Hourly Weather History & Observations

Time (EDT) Temp. Dew Point Humidity Pressure Visibility Wind Dir Wind Speed Gust Speed Precip Events Conditions
12:15 AM 71.6 °F 64.4 °F 78% 29.95 in 10.0 mi West 4.6 mph - N/A   Clear
12:35 AM 71.6 °F 64.4 °F 78% 29.94 in 10.0 mi West 3.5 mph - N/A   Clear
12:55 AM 69.8 °F 64.4 °F 83% 29.94 in 10.0 mi West 3.5 mph - N/A   Clear
1:15 AM 69.8 °F 64.4 °F 83% 29.93 in 10.0 mi WSW 3.5 mph - N/A   Clear
1:35 AM 69.8 °F 64.4 °F 83% 29.93 in 10.0 mi South 6.9 mph - N/A   Clear
1:55 AM 69.8 °F 64.4 °F 83% 29.93 in 10.0 mi SW 6.9 mph - N/A   Clear
2:15 AM 68.0 °F 64.4 °F 88% 29.92 in 10.0 mi SW 4.6 mph - N/A   Clear
2:35 AM 68.0 °F 64.4 °F 88% 29.92 in 10.0 mi SW 6.9 mph - N/A   Clear
2:55 AM 68.0 °F 64.4 °F 88% 29.92 in 10.0 mi SW 8.1 mph - N/A   Clear
3:15 AM 68.0 °F 64.4 °F 88% 29.91 in 10.0 mi SW 8.1 mph - N/A   Clear
3:35 AM 68.0 °F 64.4 °F 88% 29.91 in 10.0 mi WSW 5.8 mph - N/A   Clear
3:55 AM 68.0 °F 64.4 °F 88% 29.91 in 10.0 mi SW 5.8 mph - N/A   Clear
4:15 AM 68.0 °F 64.4 °F 88% 29.92 in 10.0 mi WSW 4.6 mph - N/A   Clear
4:35 AM 69.8 °F 64.4 °F 83% 29.92 in 10.0 mi WSW 5.8 mph - N/A   Clear
4:55 AM 69.8 °F 64.4 °F 83% 29.91 in 10.0 mi SW 5.8 mph - N/A   Clear
5:15 AM 68.0 °F 64.4 °F 88% 29.92 in 10.0 mi SW 6.9 mph - N/A   Clear
5:35 AM 68.0 °F 64.4 °F 88% 29.92 in 10.0 mi SSW 4.6 mph - N/A   Scattered Clouds
5:55 AM 69.8 °F 64.4 °F 83% 29.92 in 10.0 mi SW 5.8 mph - N/A   Mostly Cloudy
6:15 AM 69.8 °F 64.4 °F 83% 29.92 in 9.0 mi SW 5.8 mph - N/A   Overcast
6:35 AM 69.8 °F 64.4 °F 83% 29.92 in 9.0 mi SW 5.8 mph - N/A   Overcast
6:55 AM 69.8 °F 64.4 °F 83% 29.92 in 9.0 mi WSW 4.6 mph - N/A   Overcast
7:15 AM 69.8 °F 64.4 °F 83% 29.92 in 9.0 mi SW 4.6 mph - N/A   Partly Cloudy
7:35 AM 69.8 °F 66.2 °F 88% 29.92 in 9.0 mi WSW 5.8 mph - N/A   Clear
7:55 AM 69.8 °F 66.2 °F 88% 29.93 in 10.0 mi SW 5.8 mph - N/A   Scattered Clouds
8:15 AM 71.6 °F 66.2 °F 83% 29.93 in 10.0 mi WSW 5.8 mph - N/A   Scattered Clouds
8:35 AM 73.4 °F 66.2 °F 78% 29.93 in 10.0 mi West 5.8 mph - N/A   Clear
8:55 AM 73.4 °F 64.4 °F 73% 29.93 in 10.0 mi West 6.9 mph - N/A   Mostly Cloudy
9:15 AM 73.4 °F 64.4 °F 73% 29.93 in 10.0 mi West 8.1 mph - N/A   Mostly Cloudy
9:35 AM 73.4 °F 64.4 °F 73% 29.94 in 10.0 mi West 8.1 mph - N/A   Mostly Cloudy
9:55 AM 71.6 °F 66.2 °F 83% 29.95 in 10.0 mi West 6.9 mph - N/A   Mostly Cloudy
10:15 AM 71.6 °F 66.2 °F 83% 29.94 in 10.0 mi WNW 5.8 mph - N/A   Overcast
10:35 AM 71.6 °F 66.2 °F 83% 29.94 in 10.0 mi West 5.8 mph - N/A   Overcast
10:55 AM 71.6 °F 66.2 °F 83% 29.95 in 9.0 mi West 6.9 mph - N/A   Mostly Cloudy
11:15 AM 71.6 °F 66.2 °F 83% 29.95 in 10.0 mi West 5.8 mph - 0.01 in   Mostly Cloudy
11:35 AM 71.6 °F 66.2 °F 83% 29.94 in 10.0 mi West 4.6 mph - 0.01 in   Overcast
11:55 AM 71.6 °F 68.0 °F 88% 29.94 in 10.0 mi West 5.8 mph - 0.01 in   Overcast
12:15 PM 71.6 °F 68.0 °F 88% 29.94 in 10.0 mi West 5.8 mph - N/A   Overcast
12:35 PM 71.6 °F 68.0 °F 88% 29.94 in 10.0 mi West 10.4 mph - N/A   Overcast
12:55 PM 73.4 °F 68.0 °F 83% 29.94 in 10.0 mi WNW 6.9 mph - N/A   Mostly Cloudy
1:15 PM 73.4 °F 66.2 °F 78% 29.94 in 10.0 mi WNW 9.2 mph - N/A   Mostly Cloudy
1:35 PM 73.4 °F 64.4 °F 73% 29.93 in 10.0 mi WNW 9.2 mph - N/A   Mostly Cloudy
1:55 PM 71.6 °F 64.4 °F 78% 29.94 in 10.0 mi WNW 6.9 mph - N/A   Overcast
2:15 PM 71.6 °F 66.2 °F 83% 29.93 in 10.0 mi WSW 6.9 mph - N/A   Overcast
2:35 PM 71.6 °F 66.2 °F 83% 29.93 in 10.0 mi West 6.9 mph - N/A   Overcast
2:55 PM 73.4 °F 66.2 °F 78% 29.92 in 10.0 mi West 8.1 mph - N/A   Mostly Cloudy
3:15 PM 73.4 °F 66.2 °F 78% 29.92 in 10.0 mi WSW 9.2 mph - N/A   Scattered Clouds
3:35 PM 75.2 °F 66.2 °F 73% 29.92 in 10.0 mi WSW 10.4 mph - N/A   Mostly Cloudy
3:55 PM 75.2 °F 66.2 °F 73% 29.90 in 10.0 mi WSW 9.2 mph - N/A   Mostly Cloudy
4:15 PM 75.2 °F 66.2 °F 73% 29.89 in 10.0 mi West 10.4 mph - N/A   Mostly Cloudy
4:35 PM 75.2 °F 66.2 °F 73% 29.89 in 10.0 mi WSW 9.2 mph - N/A   Mostly Cloudy
4:55 PM 77.0 °F 66.2 °F 69% 29.89 in 10.0 mi West 11.5 mph - N/A   Clear
5:15 PM 78.8 °F 66.2 °F 65% 29.89 in 10.0 mi West 11.5 mph - N/A   Clear
5:35 PM 78.8 °F 66.2 °F 65% 29.89 in 10.0 mi West 15.0 mph 18.4 mph N/A   Partly Cloudy
5:55 PM 77.0 °F 64.4 °F 65% 29.89 in 10.0 mi West 11.5 mph - N/A   Clear
6:15 PM 75.2 °F 64.4 °F 69% 29.89 in 10.0 mi WSW 9.2 mph - N/A   Scattered Clouds
6:35 PM 75.2 °F 64.4 °F 69% 29.89 in 10.0 mi WSW 8.1 mph - N/A   Overcast
6:55 PM 75.2 °F 64.4 °F 69% 29.89 in 10.0 mi WSW 8.1 mph - N/A   Overcast
7:15 PM 73.4 °F 64.4 °F 73% 29.90 in 10.0 mi West 5.8 mph - N/A   Overcast
7:35 PM 73.4 °F 64.4 °F 73% 29.90 in 10.0 mi WSW 4.6 mph - N/A   Overcast
7:55 PM 73.4 °F 64.4 °F 73% 29.90 in 10.0 mi WSW 5.8 mph - N/A   Mostly Cloudy
8:15 PM 73.4 °F 64.4 °F 73% 29.90 in 10.0 mi SW 5.8 mph - N/A   Partly Cloudy
8:35 PM 71.6 °F 64.4 °F 78% 29.90 in 10.0 mi SW 6.9 mph - N/A   Clear
8:55 PM 71.6 °F 64.4 °F 78% 29.90 in 10.0 mi SW 6.9 mph - N/A   Scattered Clouds
9:15 PM 71.6 °F 64.4 °F 78% 29.90 in 10.0 mi WSW 5.8 mph - N/A   Partly Cloudy
9:35 PM 69.8 °F 64.4 °F 83% 29.91 in 10.0 mi WSW 6.9 mph - N/A   Clear
9:55 PM 69.8 °F 64.4 °F 83% 29.91 in 10.0 mi WSW 5.8 mph - N/A   Scattered Clouds
10:15 PM 69.8 °F 64.4 °F 83% 29.91 in 10.0 mi SW 6.9 mph - N/A   Clear
10:35 PM 69.8 °F 64.4 °F 83% 29.91 in 10.0 mi SW 5.8 mph - N/A   Clear
10:55 PM 68.0 °F 64.4 °F 88% 29.90 in 10.0 mi WSW 4.6 mph - N/A   Partly Cloudy
11:15 PM 68.0 °F 64.4 °F 88% 29.90 in 10.0 mi WSW 4.6 mph - N/A   Partly Cloudy
11:35 PM 66.2 °F 64.4 °F 94% 29.90 in 10.0 mi SW 6.9 mph - N/A   Clear
11:55 PM 66.2 °F 64.4 °F 94% 29.90 in 10.0 mi SW 6.9 mph - N/A   Clear